TimeCST,TemperatureF,Dew PointF,Humidity,Sea Level PressureIn,VisibilityMPH,Wind Direction,Wind SpeedMPH,Gust SpeedMPH,PrecipitationIn,Events,Conditions,WindDirDegrees,DateUTC
12:05 AM,64.4,60.8,88,30.25,10.0,Calm,Calm,-,N/A,,Mostly Cloudy,0,2011-11-21 06:05:00
12:53 AM,63.0,61.0,93,30.23,10.0,Calm,Calm,-,N/A,,Scattered Clouds,0,2011-11-21 06:53:00
1:53 AM,60.1,59.0,96,30.22,10.0,SSE,3.5,-,N/A,,Clear,150,2011-11-21 07:53:00
2:53 AM,62.1,60.1,93,30.24,8.0,Calm,Calm,-,N/A,,Partly Cloudy,0,2011-11-21 08:53:00
3:53 AM,60.1,59.0,96,30.24,7.0,Calm,Calm,-,N/A,,Partly Cloudy,0,2011-11-21 09:53:00
4:45 AM,60.8,57.2,88,30.26,7.0,SSE,3.5,-,N/A,,Mostly Cloudy,150,2011-11-21 10:45:00
4:53 AM,62.1,61.0,96,30.25,7.0,SE,3.5,-,N/A,,Mostly Cloudy,140,2011-11-21 10:53:00
5:41 AM,64.4,62.6,94,30.27,10.0,Calm,Calm,-,N/A,,Overcast,0,2011-11-21 11:41:00
5:53 AM,64.4,62.6,94,30.27,10.0,South,4.6,-,N/A,,Overcast,180,2011-11-21 11:53:00
6:05 AM,64.4,62.6,94,30.28,9.0,SW,4.6,-,N/A,,Overcast,230,2011-11-21 12:05:00
6:53 AM,64.9,63.0,93,30.27,5.0,South,4.6,-,N/A,,Overcast,190,2011-11-21 12:53:00
7:06 AM,64.4,62.6,94,30.29,2.5,South,5.8,-,N/A,,Overcast,180,2011-11-21 13:06:00
7:53 AM,66.0,64.0,93,30.28,2.5,Calm,Calm,-,N/A,,Overcast,0,2011-11-21 13:53:00
7:59 AM,66.2,64.4,94,30.29,6.0,SSW,3.5,-,N/A,,Overcast,200,2011-11-21 13:59:00
8:53 AM,68.0,64.0,87,30.27,6.0,South,6.9,-,N/A,,Overcast,180,2011-11-21 14:53:00
9:53 AM,70.0,64.0,81,30.27,10.0,South,9.2,-,N/A,,Mostly Cloudy,180,2011-11-21 15:53:00
10:46 AM,71.6,62.6,73,30.27,10.0,SSW,10.4,-,N/A,,Scattered Clouds,210,2011-11-21 16:46:00
10:53 AM,73.0,63.0,71,30.25,10.0,SSW,10.4,-,N/A,,Scattered Clouds,210,2011-11-21 16:53:00
11:43 AM,71.6,62.6,73,30.25,10.0,South,8.1,-,N/A,,Mostly Cloudy,190,2011-11-21 17:43:00
11:53 AM,72.0,63.0,73,30.22,10.0,South,11.5,-,N/A,,Mostly Cloudy,180,2011-11-21 17:53:00
12:53 PM,72.0,63.0,73,30.20,10.0,WSW,4.6,-,N/A,,Overcast,250,2011-11-21 18:53:00
1:27 PM,73.4,62.6,69,30.20,10.0,West,5.8,-,N/A,,Overcast,260,2011-11-21 19:27:00
1:53 PM,73.9,63.0,68,30.17,10.0,West,4.6,-,N/A,,Mostly Cloudy,260,2011-11-21 19:53:00
2:53 PM,73.9,63.0,68,30.17,10.0,Calm,Calm,-,N/A,,Mostly Cloudy,0,2011-11-21 20:53:00
3:53 PM,73.0,63.0,71,30.15,10.0,SSE,5.8,-,N/A,,Clear,150,2011-11-21 21:53:00
4:53 PM,71.1,61.0,70,30.15,10.0,Calm,Calm,-,N/A,,Clear,0,2011-11-21 22:53:00
5:53 PM,66.9,61.0,81,30.15,10.0,Calm,Calm,-,N/A,,Clear,0,2011-11-21 23:53:00
6:53 PM,64.9,61.0,87,30.16,10.0,Calm,Calm,-,N/A,,Clear,0,2011-11-22 00:53:00
7:53 PM,63.0,61.0,93,30.15,10.0,Calm,Calm,-,N/A,,Clear,0,2011-11-22 01:53:00
8:53 PM,63.0,60.1,90,30.14,10.0,Calm,Calm,-,N/A,,Clear,0,2011-11-22 02:53:00
9:53 PM,60.1,57.9,93,30.12,9.0,Calm,Calm,-,N/A,,Clear,0,2011-11-22 03:53:00
10:53 PM,64.9,62.1,90,30.10,10.0,SE,5.8,-,N/A,,Clear,140,2011-11-22 04:53:00
11:53 PM,63.0,60.1,90,30.11,10.0,Calm,Calm,-,N/A,,Clear,0,2011-11-22 05:53:00